Regional Weather Roundup
Issued by NWS

Home | Current Version | Previous Version | Graphics & Text | Print | Product List | Glossary On
Versions: 1 2 3 4 5 6 7 8 9 10 11 12 13 14 15 16 17 18 19 20 21 22 23 24 25 26 27 28 29 30 31 32 33 34 35 36 37 38 39 40 41 42 43 44 45 46 47 48 49 50
000
ASUS43 KLOT 191403
RWRIL

ILLINOIS REGIONAL WEATHER ROUNDUP
NATIONAL WEATHER SERVICE CHICAGO/ROMEOVILLE IL
900 AM CDT SAT AUG 19 2017

NOTE: "FAIR" INDICATES FEW OR NO CLOUDS BELOW 12,000 FEET WITH NO
SIGNIFICANT WEATHER AND/OR OBSTRUCTIONS TO VISIBILITY.

* THESE STATIONS ARE NOT UNDER NWS QUALITY CONTROL. THEY ALSO MAY NOT
  REPORT WEATHER SUCH AS PRECIPITATION OR FOG.

ILZ001-002-007-009-015-016-024-191500-
NORTHWEST ILLINOIS

CITY           SKY/WX    TMP DP  RH WIND       PRES   REMARKS
MOLINE         SUNNY     70  62  76 E7        29.96S
STERLING*      SUNNY     69  62  78 CALM      29.98R
SAVANNA*       SUNNY     67  61  81 NE3       29.98R
$$

ILZ003-004-008-010-011-017-018-191500-
NORTH CENTRAL ILLINOIS

CITY           SKY/WX    TMP DP  RH WIND       PRES   REMARKS
ROCKFORD       SUNNY     67  62  84 VRB3      29.98R
FREEPORT*      SUNNY     64  61  89 CALM      30.00R
ROCHELLE*      MOSUNNY   66  62  87 CALM      29.99R
$$

ILZ005-006-012>014-019>023-191500-
NORTHEAST ILLINOIS

CITY           SKY/WX    TMP DP  RH WIND       PRES   REMARKS
CHICAGO-OHARE  MOSUNNY   72  61  68 NE3       29.95F
CHICAGO-MIDWAY MOSUNNY   72  63  73 NE5       29.95F
AURORA         SUNNY     68  63  84 CALM      29.97S
LANSING*       MOSUNNY   71  61  70 CALM      29.96F
JOLIET*        SUNNY     70  64  80 CALM      29.97R
WAUKEGAN       SUNNY     69  64  84 CALM      29.95R
DUPAGE AIRPORT SUNNY     69  64  84 NE6       29.96R
KANKAKEE*      SUNNY     71  62  72 CALM      29.96F
WHEELING       SUNNY     69  64  84 CALM      29.97S
MORRIS*        CLOUDY    68  64  86 CALM      29.95S
NORTHERLY ISL    N/A     72  62  71 NE3         N/A
$$

LMZ740>746-191500-
SOUTHERN LAKE MICHIGAN

STATION/POSITION SKY/WX   TEMP    WIND        PRES    VSBY  WAVE
                          AIR SEA DIR/SP/G                  HT/PER
                          (F)     (DEG/KT/KT) (MB)    (MI)  (FT/S)
SOUTHERN BUOY              69 71  350/  6/  6 1013.6          1/ 3
WILMETTE HARBOR            69 73  340/  6/  8   N/A           2/ 4
HARRISON CRIB              69     350/  3/  3   N/A
CALUMET HARBOR             70     300/  3/  5 1014.0R
BURNS HARBOR               70     340/  5/  7 1015.2R
MICHIGAN CITY              71     320/  7/  8   N/A
MICHIGAN CITY 6N           71 74  340/  6/ 10   N/A           2/ 4
ST. JOSEPH                 71 73  360/  8/ 10 1014.1R         2/ 4
$$

ILZ025>027-034>036-040-047-049-050-058-095>099-191500-
WEST-CENTRAL ILLINOIS

CITY           SKY/WX    TMP DP  RH WIND       PRES   REMARKS
QUINCY         SUNNY     72  66  81 SE6       29.95R
MACOMB*        SUNNY     69  65  86 E6        29.98R
$$

ILZ028>032-037-038-041>044-048-051>054-059>061-191500-
CENTRAL ILLINOIS

CITY           SKY/WX    TMP DP  RH WIND       PRES   REMARKS
BLOOMINGTON    SUNNY     71  63  75 E5        29.96R
DECATUR        SUNNY     73  65  75 NE6       29.95S
PEORIA         SUNNY     71  60  68 E6        29.95S
LACON*         MOSUNNY   70  63  80 CALM      29.96R
LINCOLN*       SUNNY     72  67  83 SE6       29.94S
SPRINGFIELD    SUNNY     74  67  78 E10       29.94F
TAYLORVILLE    NOT AVBL
$$

ILZ033-039-045-046-055>057-062-063-191500-
EAST-CENTRAL ILLINOIS

CITY           SKY/WX    TMP DP  RH WIND       PRES   REMARKS
CHAMPAIGN      MOSUNNY   75  64  68 VRB6      29.95F
RANTOUL*       CLOUDY    72  67  82 E6        29.94F
MATTOON        SUNNY     75  68  78 N5        29.95R
PARIS*         SUNNY     73  68  84 N5        29.96R
$$

ILZ079-100>102-191500-
SOUTHWEST ILLINOIS

CITY           SKY/WX    TMP DP  RH WIND       PRES   REMARKS
ALTON          SUNNY     75  70  83 W9        29.96S
BELLEVILLE     SUNNY     78  70  75 W5        29.97R HX  80
CAHOKIA*       SUNNY     78  68  71 NW3       29.95S HX  80
SPARTA*        SUNNY     77  68  75 W5        29.97S
$$

ILZ064>066-069>071-074>076-080>082-084>086-088>090-092>094-191500-
SOUTH-CENTRAL ILLINOIS

CITY           SKY/WX    TMP DP  RH WIND       PRES   REMARKS
CARBONDALE     PTSUNNY   75  69  81 CALM      29.96R
CAIRO*         SUNNY     77  71  83 SW5       29.95S
EFFINGHAM*     SUNNY     76  71  84 SW5       29.97S
MARION         MOSUNNY   77  72  83 CALM      29.97R
MT. VERNON       N/A     73  69  87 E6        29.97S
CENTRALIA*     SUNNY     78  71  78 SW6       29.95S HX  80
SALEM*         CLOUDY    76  68  78 CALM      29.96S
METROPOLIS*    PTSUNNY   78  71  79 SW3       29.96S
$$

ILZ067-068-072-073-078-083-087-091-191500-
SOUTHEAST ILLINOIS

CITY           SKY/WX    TMP DP  RH WIND       PRES   REMARKS
LAWRENCEVILLE  SUNNY     78  69  73 N5        29.95S HX  80
FLORA*         CLOUDY    74  68  79 SW6       29.97R
FAIRFIELD*     RAIN      67  67  98 CALM      29.96R
HARRISBURG*    MOSUNNY   77  71  82 NE5       29.98R
ROBINSON*      SUNNY     77  69  77 W6        29.95F
CARMI*         CLOUDY    69  68  97 SE7       29.97F
$$

ABBREVIATIONS USED IN REMARKS
   TC - TEMPERATURE IN CELSIUS
  WCI - WIND CHILL INDEX
   HX - HEAT INDEX
  VSB - VISIBILITY
$$




USA.gov is the U.S. government's official web portal to all federal, state and local government web resources and services.